Satellite-Ground Cal/Val Region Overpasses Predictions

Prediction of Satellite NPP Overpassing Cal/Val Region: PacNW

Region Location: (Latitude: 10.00, Longitude: 139.50) to (Latitude: 22.70, Longitude: 165.60).

Table of predicted overpasses for the next 14.0 days since TLE Epoch: 4/24/2021
Interval Starting Time Starting Location Ending Time Ending Location
1 04/24/2021 03:48:20 ( 10.01, 142.53) 04/24/2021 03:51:56 ( 22.69, 139.51)
2 04/24/2021 14:38:43 ( 22.68, 165.14) 04/24/2021 14:42:19 ( 10.00, 162.13)
3 04/24/2021 16:20:13 ( 22.68, 139.77) 04/24/2021 16:20:31 ( 21.62, 139.50)
4 04/25/2021 03:29:18 ( 10.01, 147.29) 04/25/2021 03:32:54 ( 22.69, 144.27)
5 04/25/2021 16:01:10 ( 22.68, 144.53) 04/25/2021 16:04:45 ( 10.06, 141.53)
6 04/26/2021 03:10:15 ( 10.01, 152.05) 04/26/2021 03:13:51 ( 22.69, 149.04)
7 04/26/2021 15:42:08 ( 22.68, 149.29) 04/26/2021 15:45:44 ( 10.00, 146.27)
8 04/27/2021 02:51:13 ( 10.00, 156.82) 04/27/2021 02:54:49 ( 22.68, 153.80)
9 04/27/2021 15:23:05 ( 22.69, 154.05) 04/27/2021 15:26:41 ( 10.01, 151.03)
10 04/28/2021 02:32:11 ( 10.06, 161.56) 04/28/2021 02:35:46 ( 22.68, 158.56)
11 04/28/2021 15:04:03 ( 22.69, 158.81) 04/28/2021 15:07:39 ( 10.01, 155.80)
12 04/29/2021 02:14:03 ( 13.23, 165.59) 04/29/2021 02:16:44 ( 22.68, 163.32)
13 04/29/2021 03:54:38 ( 10.00, 140.96) 04/29/2021 03:56:25 ( 16.29, 139.50)
14 04/29/2021 14:45:01 ( 22.70, 163.58) 04/29/2021 14:48:37 ( 10.02, 160.56)
15 04/30/2021 03:35:36 ( 10.06, 145.71) 04/30/2021 03:39:11 ( 22.68, 142.71)
16 04/30/2021 14:29:14 ( 11.19, 165.59) 04/30/2021 14:29:34 ( 10.02, 165.32)
17 04/30/2021 16:07:28 ( 22.69, 142.96) 04/30/2021 16:11:04 ( 10.01, 139.94)
18 05/01/2021 03:16:34 ( 10.05, 150.47) 05/01/2021 03:20:09 ( 22.68, 147.47)
19 05/01/2021 15:48:26 ( 22.69, 147.72) 05/01/2021 15:52:02 ( 10.01, 144.70)
20 05/02/2021 02:57:31 ( 10.05, 155.23) 05/02/2021 03:01:06 ( 22.68, 152.23)
21 05/02/2021 15:29:23 ( 22.70, 152.48) 05/02/2021 15:32:59 ( 10.02, 149.47)
22 05/03/2021 02:38:29 ( 10.05, 159.99) 05/03/2021 02:42:04 ( 22.67, 156.99)
23 05/03/2021 15:10:21 ( 22.70, 157.24) 05/03/2021 15:13:57 ( 10.02, 154.23)
24 05/04/2021 02:19:26 ( 10.05, 164.75) 05/04/2021 02:23:01 ( 22.67, 161.75)
25 05/04/2021 14:51:19 ( 22.64, 161.99) 05/04/2021 14:54:54 ( 10.02, 158.99)
26 05/05/2021 03:41:54 ( 10.05, 144.14) 05/05/2021 03:45:29 ( 22.68, 141.13)
27 05/05/2021 14:33:38 ( 17.90, 165.59) 05/05/2021 14:35:52 ( 10.03, 163.75)
28 05/05/2021 16:13:46 ( 22.70, 141.39) 05/05/2021 16:15:59 ( 14.89, 139.50)
29 05/06/2021 03:22:51 ( 10.05, 148.90) 05/06/2021 03:26:26 ( 22.68, 145.90)
30 05/06/2021 15:54:43 ( 22.70, 146.15) 05/06/2021 15:58:19 ( 10.02, 143.13)
31 05/07/2021 03:03:49 ( 10.05, 153.66) 05/07/2021 03:07:24 ( 22.68, 150.66)
